| time (UTC) | temp C | wind direction | speed KPH | gust KPH | rain 1hr cm | rain 24hr cm | rain mn cm | humidity % | barometer mb |
| 20260506150027 | 11 | 215 | 1.6 | 14.5 | 0.00 | 3.38 | 0.56 | 77 | 1011.4 |
| 20260506144504 | 10 | 259 | 1.6 | 16.1 | 0.00 | 3.38 | 0.56 | 81 | 1011.6 |
| 20260506143008 | 10 | 269 | 6.4 | 17.7 | 0.00 | 3.38 | 0.56 | 82 | 1011.5 |
| 20260506141509 | 10 | 293 | 3.2 | 12.9 | 0.00 | 3.38 | 0.56 | 85 | 1011.4 |
| 20260506140016 | 9 | 297 | 4.8 | 11.3 | 0.00 | 3.38 | 0.56 | 86 | 1011.2 |
| 20260506134504 | 8 | 309 | 3.2 | 9.7 | 0.00 | 3.38 | 0.56 | 87 | 1011.2 |
| 20260506133006 | 8 | 274 | 3.2 | 14.5 | 0.00 | 3.38 | 0.56 | 88 | 1011.2 |
| 20260506131510 | 8 | 289 | 3.2 | 8.0 | 0.00 | 3.38 | 0.56 | 91 | 1011.1 |
| 20260506130014 | 8 | 278 | 0.0 | 6.4 | 0.00 | 3.38 | 0.56 | 92 | 1010.8 |
| 20260506124521 | 7 | 262 | 0.0 | 3.2 | 0.00 | 3.38 | 0.56 | 94 | 1010.3 |
| 20260506123012 | 7 | 270 | 0.0 | 1.6 | 0.00 | 3.38 | 0.56 | 95 | 1010.0 |
| 20260506121509 | 7 | 274 | 0.0 | 1.6 | 0.00 | 3.38 | 0.56 | 95 | 1010.1 |
| 20260506120014 | 7 | 274 | 0.0 | 1.6 | 0.00 | 3.38 | 0.56 | 95 | 1010.1 |
| 20260506114531 | 7 | 290 | 0.0 | 1.6 | 0.00 | 3.38 | 0.56 | 95 | 1010.1 |
| 20260506113021 | 7 | 255 | 0.0 | 1.6 | 0.00 | 3.38 | 0.56 | 95 | 1010.0 |
| 20260506111517 | 7 | 198 | 0.0 | 0.0 | 0.00 | 3.38 | 0.56 | 95 | 1009.4 |
| 20260506110012 | 7 | 198 | 0.0 | 0.0 | 0.00 | 3.38 | 0.56 | 95 | 1009.4 |
| 20260506104512 | 7 | 211 | 0.0 | 1.6 | 0.00 | 3.38 | 0.56 | 95 | 1008.9 |
| 20260506103018 | 7 | 200 | 0.0 | 1.6 | 0.00 | 3.38 | 0.56 | 95 | 1008.5 |
| 20260506101524 | 7 | 280 | 0.0 | 3.2 | 0.00 | 3.38 | 0.56 | 95 | 1009.3 |
| 20260506100025 | 7 | 105 | 0.0 | 1.6 | 0.03 | 3.38 | 0.56 | 95 | 1008.7 |
| 20260506094519 | 7 | 105 | 0.0 | 1.6 | 0.03 | 3.38 | 0.56 | 95 | 1008.2 |
| 20260506093014 | 7 | 103 | 0.0 | 1.6 | 0.03 | 3.38 | 0.56 | 95 | 1008.4 |
| 20260506091520 | 7 | 319 | 0.0 | 4.8 | 0.03 | 3.38 | 0.56 | 95 | 1009.0 |
| 20260506090024 | 7 | 300 | 1.6 | 6.4 | 0.05 | 3.35 | 0.53 | 95 | 1009.3 |
| 20260506084526 | 7 | 279 | 0.0 | 1.6 | 0.13 | 3.35 | 0.53 | 95 | 1008.8 |
| 20260506083028 | 7 | 267 | 0.0 | 1.6 | 0.15 | 3.35 | 0.53 | 95 | 1008.6 |
| 20260506081517 | 7 | 344 | 0.0 | 0.0 | 0.18 | 3.35 | 0.53 | 95 | 1008.7 |
| 20260506073026 | 7 | 257 | 0.0 | 3.2 | 0.15 | 3.20 | 0.38 | 95 | 1009.0 |
| 20260506071528 | 7 | 330 | 0.0 | 1.6 | 0.15 | 3.17 | 0.36 | 95 | 1008.8 |
| 20260506061510 | 7 | 37 | 0.0 | 0.0 | 0.10 | 3.02 | 0.20 | 95 | 1008.9 |
| 20260506044526 | 7 | 38 | 0.0 | 1.6 | 0.08 | 2.87 | 0.05 | 94 | 1009.1 |
| 20260506043020 | 7 | 38 | 0.0 | 4.8 | 0.08 | 2.84 | 0.03 | 94 | 1009.3 |
| 20260506041516 | 8 | 105 | 0.0 | 1.6 | 0.15 | 2.84 | 0.03 | 94 | 1009.4 |
| 20260506040008 | 8 | 274 | 0.0 | 1.6 | 0.20 | 2.82 | 0.00 | 95 | 1009.5 |
| 20260506034511 | 8 | 275 | 0.0 | 1.6 | 0.28 | 2.79 | 2.79 | 94 | 1009.7 |
| 20260506033012 | 8 | 203 | 0.0 | 3.2 | 0.36 | 2.77 | 2.77 | 94 | 1010.0 |
| 20260506031530 | 8 | 10 | 0.0 | 1.6 | 0.43 | 2.67 | 2.67 | 95 | 1009.9 |
| 20260506030045 | 8 | 3 | 0.0 | 1.6 | 0.48 | 2.62 | 2.62 | 95 | 1009.9 |
| 20260506024528 | 9 | 3 | 0.0 | 1.6 | 0.51 | 2.51 | 2.51 | 95 | 1009.9 |
| 20260506023012 | 9 | 275 | 0.0 | 1.6 | 0.48 | 2.41 | 2.41 | 95 | 1009.9 |
| 20260506021515 | 9 | 37 | 0.0 | 0.0 | 0.41 | 2.26 | 2.26 | 95 | 1009.3 |
| 20260506020012 | 9 | 37 | 0.0 | 1.6 | 0.28 | 2.13 | 2.13 | 95 | 1009.2 |
| 20260506014526 | 9 | 37 | 0.0 | 1.6 | 0.18 | 2.01 | 2.01 | 95 | 1009.3 |
| 20260506013024 | 9 | 27 | 0.0 | 1.6 | 0.13 | 1.93 | 1.93 | 95 | 1009.2 |
| 20260506011512 | 9 | 9 | 0.0 | 0.0 | 0.08 | 1.85 | 1.85 | 95 | 1009.3 |
| 20260506010018 | 9 | 226 | 0.0 | 1.6 | 0.13 | 1.85 | 1.85 | 94 | 1009.3 |
| 20260506004532 | 9 | 264 | 0.0 | 1.6 | 0.20 | 1.83 | 1.83 | 94 | 1009.1 |
| 20260506003010 | 9 | 289 | 0.0 | 3.2 | 0.18 | 1.80 | 1.80 | 94 | 1009.1 |
| 20260506001509 | 9 | 87 | 0.0 | 3.2 | 0.15 | 1.78 | 1.78 | 94 | 1008.9 |
| 20260506000010 | 9 | 77 | 0.0 | 4.8 | 0.13 | 1.73 | 1.73 | 94 | 1008.3 |
| 20260505234518 | 9 | 52 | 0.0 | 3.2 | 0.08 | 1.63 | 1.63 | 94 | 1008.5 |
| 20260505233021 | 10 | 124 | 0.0 | 4.8 | 0.18 | 1.63 | 1.63 | 94 | 1008.6 |
| 20260505231525 | 10 | 20 | 0.0 | 3.2 | 0.38 | 1.63 | 1.63 | 94 | 1008.6 |
| 20260505230014 | 10 | 64 | 0.0 | 3.2 | 0.41 | 1.60 | 1.60 | 93 | 1009.2 |
| 20260505224510 | 10 | 227 | 0.0 | 9.7 | 0.43 | 1.55 | 1.55 | 93 | 1009.4 |
| 20260505223008 | 10 | 248 | 0.0 | 11.3 | 0.43 | 1.45 | 1.45 | 93 | 1009.2 |
| 20260505221524 | 11 | 46 | 0.0 | 8.0 | 0.41 | 1.24 | 1.24 | 93 | 1008.8 |
| 20260505220030 | 11 | 262 | 0.0 | 16.1 | 0.41 | 1.19 | 1.19 | 93 | 1008.5 |
| 20260505214514 | 11 | 233 | 0.0 | 1.6 | 0.43 | 1.12 | 1.12 | 93 | 1008.2 |
| 20260505213016 | 12 | 95 | 0.0 | 3.2 | 0.43 | 1.02 | 1.02 | 92 | 1008.3 |
| 20260505211516 | 13 | 115 | 1.6 | 9.7 | 0.38 | 0.84 | 0.84 | 92 | 1008.3 |
| 20260505210005 | 13 | 232 | 0.0 | 4.8 | 0.43 | 0.79 | 0.79 | 93 | 1008.3 |
| 20260505204513 | 13 | 298 | 3.2 | 8.0 | 0.43 | 0.69 | 0.69 | 93 | 1008.5 |
| 20260505203021 | 13 | 260 | 6.4 | 14.5 | 0.41 | 0.58 | 0.58 | 92 | 1008.4 |
| 20260505201519 | 13 | 301 | 1.6 | 8.0 | 0.38 | 0.46 | 0.46 | 92 | 1008.4 |
| 20260505200022 | 13 | 280 | 1.6 | 4.8 | 0.33 | 0.36 | 0.36 | 91 | 1008.5 |
| 20260505194507 | 13 | 268 | 3.2 | 6.4 | 0.25 | 0.25 | 0.25 | 91 | 1008.5 |
| 20260505193009 | 14 | 278 | 1.6 | 12.9 | 0.18 | 0.18 | 0.18 | 89 | 1008.5 |
| 20260505191513 | 14 | 288 | 3.2 | 8.0 | 0.08 | 0.08 | 0.08 | 88 | 1008.6 |
| 20260505190014 | 15 | 330 | 3.2 | 11.3 | 0.03 | 0.03 | 0.03 | 85 | 1008.5 |
| 20260505184527 | 15 | 267 | 8.0 | 16.1 | 0.00 | 0.00 | 0.00 | 80 | 1008.6 |
| 20260505183026 | 16 | 287 | 9.7 | 16.1 | 0.00 | 0.00 | 0.00 | 75 | 1008.5 |
| 20260505181511 | 17 | 217 | 9.7 | 22.5 | 0.00 | 0.00 | 0.00 | 72 | 1008.3 |
| 20260505180026 | 17 | 288 | 14.5 | 24.1 | 0.00 | 0.00 | 0.00 | 70 | 1008.2 |
| 20260505174514 | 18 | 274 | 9.7 | 17.7 | 0.00 | 0.00 | 0.00 | 70 | 1008.1 |
| 20260505173024 | 18 | 249 | 9.7 | 20.9 | 0.00 | 0.00 | 0.00 | 70 | 1008.2 |
| 20260505171527 | 17 | 252 | 12.9 | 24.1 | 0.00 | 0.00 | 0.00 | 70 | 1008.1 |
| 20260505170017 | 17 | 283 | 14.5 | 33.8 | 0.00 | 0.00 | 0.00 | 69 | 1008.3 |
| 20260505164517 | 17 | 272 | 16.1 | 29.0 | 0.00 | 0.00 | 0.00 | 69 | 1008.2 |
| 20260505163020 | 18 | 272 | 16.1 | 27.4 | 0.00 | 0.00 | 0.00 | 67 | 1008.0 |
| 20260505161517 | 18 | 274 | 17.7 | 32.2 | 0.00 | 0.00 | 0.00 | 66 | 1008.0 |
| 20260505153022 | 20 | 265 | 14.5 | 35.4 | 0.00 | 0.00 | 0.00 | 62 | 1007.3 |
| 20260505151503 | 19 | 271 | 11.3 | 22.5 | 0.00 | 0.00 | 0.00 | 62 | 1007.0 |